Regional Weather Roundup
Issued by NWS

Home | Current Version | Previous Version | Text Only | Print | Product List | Glossary On
Versions: 1 2 3 4 5 6 7 8 9 10 11 12 13 14 15 16 17 18 19 20 21 22 23 24 25 26 27 28 29 30 31 32 33 34 35 36 37 38 39 40 41 42 43 44 45 46 47 48 49 50
000
ASUS44 KOUN 210310
RWROK

WEATHER ROUNDUP FOR OKLAHOMA
NATIONAL WEATHER SERVICE NORMAN OK
900 PM CST MON FEB 20 2017

NOTE: "FAIR" INDICATES FEW OR NO CLOUDS BELOW 12,000 FEET WITH NO
      SIGNIFICANT WEATHER AND/OR OBSTRUCTIONS TO VISIBILITY.

OKZ001>007-009>012-014-015-017-210400-
NORTHWEST OKLAHOMA AND THE PANHANDLE

CITY           SKY/WX    TMP DP  RH WIND       PRES   REMARKS
GAGE           CLEAR     47  23  38 NW8       30.00R
GUYMON         CLEAR     48  12  23 NW6       30.06R
ENID/WOODRING  PTCLDY    54  52  94 CALM      29.92R
$$

OKZ016-021>023-033>039-044-045-210400-
SOUTHWEST OKLAHOMA

CITY           SKY/WX    TMP DP  RH WIND       PRES   REMARKS
LAWTON/REGL    CLEAR     51  49  92 CALM      29.94R
LAWTON/FT SILL CLEAR     56  50  80 CALM      29.92R
FREDERICK      CLEAR     57  46  66 NW8       29.91R
CLINTON        CLEAR     53  28  38 NW12      29.98R
HOBART         CLEAR     54  38  54 N10       29.96R
ALTUS AFB      CLEAR     57  35  43 NW12      29.95R
$$

OKZ018>020-024>031-210400-
CENTRAL OKLAHOMA

CITY           SKY/WX    TMP DP  RH WIND       PRES   REMARKS
OKLAHOMA CITY  PTCLDY    51  49  92 CALM      29.92R
OKC/WILEY POST CLEAR     55  52  89 S3        29.92R
OKC/TINKER AFB CLEAR     53  50  88 SE5       29.91S
STILLWATER     CLEAR     50  48  93 SW3       29.92R
GUTHRIE        CLEAR     54  51  90 S5        29.92R
$$

OKZ008-013-054>072-210400-
NORTHEAST OKLAHOMA

CITY           SKY/WX    TMP DP  RH WIND       PRES   REMARKS
TULSA          CLOUDY    59  55  87 SE3       29.91F
TULSA/JONES    PTCLDY    55  52  89 CALM      29.93R
PONCA CITY     CLEAR     50  47  89 E3        29.93R
BARTLESVILLE   CLOUDY    52  51  97 CALM      29.93F
MUSKOGEE       CLOUDY    57  55  93 SW3       29.93F
$$

OKZ032-040>043-046>053-073>077-210400-
SOUTH CENTRAL/SOUTHEAST OKLAHOMA

CITY           SKY/WX    TMP DP  RH WIND       PRES   REMARKS
ARDMORE/DWNTWN CLEAR     52  50  93 CALM      29.92S FOG
MCALESTER      CLOUDY    54  51  90 S3        29.93S
$$




USA.gov is the U.S. government's official web portal to all federal, state and local government web resources and services.